Regional Weather Roundup
Issued by NWS State College, PA

Home | Current Version | Previous Version | Text Only | Print | Product List | Glossary Off
Versions: 1 2 3 4 5 6 7 8 9 10 11 12 13 14 15 16 17 18 19 20 21 22 23 24 25 26 27 28 29 30 31 32 33 34 35 36 37 38 39 40 41 42 43 44 45 46 47 48 49 50

000
ASUS41 KCTP 251210
RWRCTP

REGIONAL WEATHER ROUNDUP
NATIONAL WEATHER SERVICE STATE COLLEGE PA
800 AM EDT FRI MAY 25 2018

Note: "fair" indicates few or no clouds below 12,000 feet with no
significant weather and/or obstructions to visibility.

* = STATION THAT DOES NOT REPORT PRECIPITATION /E.G. RAIN...SNOW...ETC/
    THUNDER OR FOG.

PAZ002>004-007>009-013>016-020>023-029>032-251300-
WESTERN PENNSYLVANIA

CITY           SKY/WX    TMP DP  RH WIND       PRES   REMARKS
ERIE           FAIR      65  50  58 S8        30.03F
MEADVILLE      FAIR      65  48  54 S5        30.06F
FRANKLIN*      FAIR      59  53  80 CALM      30.08F
NEW CASTLE     FAIR      56  56 100 CALM      30.08S
BEAVER COUNTY  SUNNY     61  55  82 CALM      30.07S
BUTLER*        FAIR      60  55  83 CALM      30.08S
PITTSBURGH INT PTSUNNY   61  55  81 SE3       30.05F
PITTSBURGH     FAIR      62  57  83 VRB3      30.06F
INDIANA*       PTSUNNY   66  57  72 CALM      30.12S
LATROBE        SUNNY     59  57  94 CALM      30.09S
WASHINGTON CO* FAIR      65  59  81 CALM      30.09F
$$

PAZ004>006-010>012-017>019-024>028-033>037-041-042-045-046-049>053-251300-
CENTRAL PENNSYLVANIA

CITY           SKY/WX    TMP DP  RH WIND       PRES   REMARKS
BRADFORD       FAIR      56  50  80 CALM      30.09F
DUBOIS         FAIR      62  55  77 CALM      30.08F
CLEARFIELD     FAIR      57  53  86 CALM      30.09F
JOHNSTOWN      FAIR      64  51  62 SW7       30.11F
ALTOONA        FAIR      67  49  52 CALM      30.09F
STATE COLLEGE  SUNNY     59  54  82 CALM      30.09S
WILLIAMSPORT   FAIR      58  53  84 CALM      30.07S
SELINSGROVE    FAIR      60  56  86 CALM      30.07F
FT INDIANTOWN  MOSUNNY   60  58  91 CALM      30.08F
CAPITAL CITY   FAIR      65  55  70 CALM      30.08F
HARRISBURG     FAIR      64  57  78 CALM      30.07F
YORK           FAIR      63  56  78 CALM      30.08F
$$

PAZ038>040-043-044-047-048-054-055-060>062-067>071-251300-
EASTERN PENNSYLVANIA

CITY           SKY/WX    TMP DP  RH WIND       PRES   REMARKS
SCRANTON       FAIR      64  54  69 NW3       30.07F
MOUNT POCONO   FAIR      64  50  60 W7        30.09F
ALLENTOWN      FAIR      65  55  70 CALM      30.07S
QUAKERTOWN*    SUNNY     66  55  68 CALM      30.08S
READING        FAIR      65  59  81 CALM      30.06F
LANCASTER      FAIR      64  55  72 E3        30.08F
COATESVILLE    FAIR      68  55  64 W5        30.10F
POTTSTOWN      FAIR      64  54  69 CALM      30.10S
BLUE BELL      FAIR      66  55  68 SW5       30.09F
DOYLESTOWN     FAIR      66  55  67 SW3       30.07S
WILLOW GROVE   NOT AVBL
NORTH PHILA    FAIR      71  59  65 SW8       30.09F
PHILADELPHIA   FAIR      67  62  84 SW9       30.09F
$$




USA.gov is the U.S. government's official web portal to all federal, state and local government web resources and services.